{"data":{"norad_id":58700,"intl_designator":"2024-004A","name":"TIANMU-1 15","alt_names":[],"object_type":"PAYLOAD","status":"ACTIVE","operator":null,"country":"PRC","launch_date":"2024-01-05","launch_site_code":"JSC","launch_vehicle":null,"mission":null,"orbit_class":"UNKNOWN","rcs_meters":null,"size_class":null,"mass_kg":null,"dimensions":null,"purposes":["earth_obs"],"wikipedia_slug":null,"has_3d_model":false,"image_url":null,"decayed_at":null,"tle_current":{"epoch":"2026-05-25T03:52:39.369792Z","epoch_age_seconds":71481,"freshness":"FRESH","line1":"1 58700U 24004A   26145.16156678  .00004958  00000+0  19122-3 0  9991","line2":"2 58700  97.4676 331.3522 0008500  74.9465 285.2713 15.26743707132262","mean_motion":15.26743707,"eccentricity":0.00085,"inclination_deg":97.4676,"raan_deg":331.3522,"arg_perigee_deg":74.9465,"mean_anomaly_deg":285.2713,"bstar":0.00019122,"rev_number":13226,"period_min":94.318384506693,"perigee_km":479.72026344777,"apogee_km":491.38853882971,"semimajor_km":6863.6914011387,"source":"CELESTRAK","updated_at":"2026-05-25T13:38:12.259855Z"}}}